Morgantown, WV

2:40 PM EDT on April 20, 2018 (GMT -0400)
Morgantown Municipal-Hart

Weather History for KMGW - December, 2014

Change the Weather History Date:

Friday, December 19, 2014

  Actual Average Record
Temperature  
Mean Temperature 29 °F 34 °F  
Max Temperature 31 °F 41 °F 69 °F (1931)
Min Temperature 27 °F 26 °F 0 °F (1919)
Degree Days  
Heating Degree Days 36 31  
Month to date heating degree days 517 547  
Since 1 July heating degree days 1547 1595  
Cooling Degree Days 0 0  
Month to date cooling degree days 0 0  
Year to date cooling degree days 981 814  
Moisture  
Dew Point 20 °F    
Average Humidity 67    
Maximum Humidity 75    
Minimum Humidity 58    
Precipitation  
Precipitation 0.00 in 0.08 in 0.75 in (1899)
Month to date precipitation 2.47 1.85  
Year to date precipitation 41.30 40.77  
Sea Level Pressure  
Sea Level Pressure 30.25 in    
Wind  
Wind Speed 3 mph (WSW)    
Max Wind Speed 9 mph    
Max Gust Speed 12 mph    
Visibility 10 miles    
Events      
T = Trace of Precipitation, MM = Missing Value Source: NWS Daily Summary

Daily Weather History Graph

Daily Weather History Graph

Search for Another Location

Airport or City:

Astronomy

Dec. 19, 2014 Rise Set
Actual Time 7:35 AM EST 4:57 PM EST
Civil Twilight 7:05 AM EST 5:28 PM EST
Nautical Twilight 6:31 AM EST 6:02 PM EST
Astronomical Twilight 5:58 AM EST 6:34 PM EST
Moon 4:49 AM EST (12/19) 3:18 PM EST (12/19)
Length of Visible Light 10h 22m
Length of Day
9h 22m
Waning Crescent, 7% of the Moon is Illuminated
Dec 19
Waning Crescent
Dec 21
New
Dec 28
First Quarter
Jan 4
Full
Jan 13
Last Quarter

Hourly Weather History & Observations

Time (EST) Temp. Windchill Dew Point Humidity Pressure Visibility Wind Dir Wind Speed Gust Speed Precip Events Conditions
12:28 AM 27.0 °F 23.0 °F 19.9 °F 75% 30.16 in 10.0 mi Variable 3.5 mph - N/A   Overcast
12:53 AM 27.0 °F 21.6 °F 19.9 °F 75% 30.21 in 10.0 mi SW 4.6 mph - N/A   Overcast
1:43 AM 27.0 °F - 19.9 °F 75% 30.16 in 10.0 mi Calm Calm - N/A   Overcast
1:53 AM 27.0 °F 23.0 °F 19.9 °F 75% 30.21 in 10.0 mi WSW 3.5 mph - N/A   Overcast
2:53 AM 27.0 °F 23.0 °F 19.0 °F 72% 30.22 in 10.0 mi Variable 3.5 mph - N/A   Overcast
3:53 AM 27.0 °F 21.6 °F 19.0 °F 72% 30.22 in 10.0 mi Variable 4.6 mph - N/A   Overcast
4:53 AM 27.0 °F 23.0 °F 19.0 °F 72% 30.21 in 10.0 mi Variable 3.5 mph - N/A   Overcast
5:22 AM 27.0 °F 23.0 °F 19.9 °F 75% 30.17 in 10.0 mi Variable 3.5 mph - N/A   Overcast
5:36 AM 27.0 °F 23.0 °F 19.9 °F 75% 30.17 in 10.0 mi Variable 3.5 mph - N/A   Overcast
5:53 AM 27.0 °F 23.0 °F 19.0 °F 72% 30.22 in 10.0 mi Variable 3.5 mph - N/A   Overcast
6:53 AM 28.0 °F 21.7 °F 19.9 °F 72% 30.24 in 10.0 mi SW 5.8 mph - N/A   Overcast
7:53 AM 28.0 °F 21.7 °F 19.9 °F 72% 30.26 in 10.0 mi SW 5.8 mph - N/A   Overcast
8:53 AM 28.0 °F 20.0 °F 19.9 °F 72% 30.26 in 10.0 mi WSW 8.1 mph - N/A   Overcast
9:53 AM 28.9 °F 21.9 °F 19.9 °F 69% 30.26 in 10.0 mi SW 6.9 mph - N/A   Overcast
10:53 AM 28.9 °F 21.1 °F 19.9 °F 69% 30.27 in 10.0 mi WSW 8.1 mph - N/A   Overcast
11:53 AM 28.9 °F - 19.9 °F 69% 30.26 in 10.0 mi Calm Calm - N/A   Overcast
12:53 PM 30.0 °F 26.5 °F 21.0 °F 69% 30.25 in 10.0 mi WSW 3.5 mph - N/A   Overcast
1:53 PM 30.0 °F 25.2 °F 21.0 °F 69% 30.24 in 10.0 mi Variable 4.6 mph - N/A   Overcast
2:53 PM 30.0 °F 26.5 °F 19.9 °F 66% 30.26 in 10.0 mi WNW 3.5 mph - N/A   Overcast
3:53 PM 30.9 °F 26.2 °F 19.9 °F 64% 30.27 in 10.0 mi Variable 4.6 mph - N/A   Overcast
4:53 PM 30.9 °F - 19.0 °F 61% 30.27 in 10.0 mi Calm Calm - N/A   Overcast
5:53 PM 30.0 °F 26.5 °F 19.0 °F 64% 30.27 in 10.0 mi WNW 3.5 mph - N/A   Overcast
6:53 PM 30.0 °F 25.2 °F 19.0 °F 64% 30.31 in 10.0 mi Variable 4.6 mph - N/A   Overcast
7:53 PM 30.0 °F - 19.0 °F 64% 30.32 in 10.0 mi Calm Calm - N/A   Overcast
8:53 PM 30.0 °F - 19.0 °F 64% 30.32 in 10.0 mi Calm Calm - N/A   Overcast
9:53 PM 30.0 °F - 19.0 °F 64% 30.31 in 10.0 mi Calm Calm - N/A   Overcast
10:53 PM 30.0 °F - 18.0 °F 61% 30.30 in 10.0 mi Calm Calm - N/A   Overcast
11:53 PM 30.0 °F - 18.0 °F 61% 30.29 in 10.0 mi Calm Calm - N/A   Overcast